Location: *
(43.9900°N, 3.4811°E)
Time: 04:02:26
(UTC+00:00)

Cosmos 1833 Rocket - Pass Details

Date: 25 August 2019
Orbit: 834 x 839 km, 71.0° (Epoch: 18 September)

Event Time Altitude Azimuth Distance (km) Brightness Sun altitude
Rises 21:00:09 0° 220° (SW) 3,378 5.8 -23.4°
Reaches altitude 10° 21:02:40 10° 226° (SW) 2,448 5.1 -23.7°
Maximum altitude 21:08:06 49° 301° (WNW) 1,080 3.6 -24.4°
Drops below altitude 10° 21:13:33 10° 16° (NNE) 2,460 5.5 -25.1°
Sets 21:16:06 0° 22° (NNE) 3,397 6.2 -25.4°
